Temp
-3 -3 -4 -3 -3 -2 -1 -0 3 5 4 7 11 12 12 12 12 11 11 11 10 10
-4 -4 -4 -4 -4 -3 -2 -1 -0 2 5 3 9 11 11 11 12 12 11 11 11 11
-5 -5 -4 -4 -4 -4 -3 -2 -2 0 4 5 7 9 10 10 11 12 12 12 12 11
-6 -6 -5 -5 -4 -4 -4 -3 -2 -2 -0 4 4 9 9 9 10 10 11 12 12 12
-6 -6 -6 -6 -5 -5 -4 -4 -3 -2 -2 2 2 8 8 9 9 9 9 9 10 10
-7 -7 -6 -6 -6 -5 -4 -4 -4 -3 -3 -0 1 6 7 8 8 9 9 9 9 9
-7 -7 -7 -6 -6 -5 -5 -4 -4 -3 -3 -2 1 5 6 7 8 8 8 9 9 10
-7 -7 -7 -7 -6 -5 -5 -5 -4 -4 -3 -2 1 3 5 7 7 8 8 9 9 9
-7 -7 -7 -7 -6 -6 -5 -5 -5 -4 -3 -2 0 3 4 5 6 8 8 8 8 8
-7 -7 -7 -7 -6 -6 -5 -5 -5 -4 -4 -3 -0 2 3 5 6 7 7 7 8 8
-7 -7 -7 -7 -7 -6 -5 -5 -5 -4 -4 -3 -0 2 3 5 6 6 7 7 7 7
-7 -7 -7 -7 -6 -6 -5 -5 -5 -4 -4 -2 -0 2 3 5 6 6 6 6 6 6
-7 -7 -7 -7 -6 -6 -5 -5 -5 -4 -3 -2 -0 2 3 5 6 6 6 6 6 6
-7 -7 -7 -6 -6 -6 -5 -5 -4 -4 -3 -1 1 3 4 5 6 6 5 5 5 5
Height
824 820 815 810 804 798 795 793 790 785 780 777 775 773 773 772 774 776 777 780 781 784
821 817 811 806 801 797 791 787 786 779 775 769 767 766 765 764 766 769 770 771 774 776
817 813 807 802 796 792 784 784 778 766 764 763 759 756 756 756 757 760 762 763 765 768
812 808 803 797 791 786 780 775 768 762 758 759 752 746 747 747 749 751 753 754 756 758
805 800 795 789 783 778 772 768 758 756 753 747 744 738 739 739 740 742 745 746 747 749
797 792 786 781 776 772 767 760 750 750 745 738 737 732 729 731 733 735 737 739 739 741
789 783 777 772 767 762 757 753 748 741 737 734 727 719 718 721 724 728 729 730 730 733
779 773 768 762 757 753 747 741 739 731 727 720 713 712 711 715 716 718 721 720 721 723
770 764 757 752 747 743 737 730 730 726 717 715 709 705 706 709 706 708 709 712 713 714
761 753 747 741 737 732 729 721 715 711 708 704 698 696 695 698 696 698 701 703 704 707
751 743 737 732 726 721 719 715 709 701 696 698 684 684 684 687 688 691 692 694 697 700
742 733 727 721 716 711 707 702 698 692 688 684 676 675 678 678 680 681 684 687 690 693
731 723 716 710 706 701 697 691 685 681 676 671 670 667 663 669 673 675 678 682 684 686
719 711 705 698 695 690 685 682 678 673 665 652 650 655 661 666 667 671 674 676 678 678
Wind_Speed
30 28 26 24 28 28 28 31 40 41 39 36 32 30 31 30 26 24 23 22 20 19
28 28 29 30 30 28 28 30 33 36 42 43 33 32 30 31 32 30 27 24 22 23
31 29 31 31 30 31 31 30 34 34 39 48 38 31 32 31 30 32 32 30 27 27
30 30 30 31 32 32 33 34 34 36 36 44 43 28 26 28 28 30 32 33 31 30
31 31 30 31 32 31 34 35 33 35 38 38 46 29 25 25 24 27 27 28 29 29
33 32 32 32 32 32 32 32 33 32 37 35 41 27 25 25 24 25 28 28 28 26
34 34 35 33 32 33 31 31 32 32 34 38 41 26 22 22 25 29 28 29 30 30
36 37 36 34 33 32 33 30 32 33 35 39 32 29 22 23 28 29 27 26 29 30
37 36 36 35 34 31 32 32 31 31 29 35 30 25 23 26 25 26 27 28 29 28
37 37 36 35 34 32 30 33 34 32 29 34 29 25 23 25 27 26 27 28 25 27
36 37 36 35 35 33 30 30 33 32 32 35 27 23 22 26 29 29 28 28 28 29
36 37 36 36 35 34 31 31 31 30 34 32 26 22 25 24 26 25 26 27 26 26
38 37 37 37 35 33 32 34 31 32 32 29 26 24 23 24 23 20 20 23 25 26
39 37 37 37 33 33 32 30 30 31 31 24 21 25 25 26 24 21 20 20 21 25
Wind_Direction
325 324 320 316 315 312 304 303 306 312 299 296 266 255 241 236 233 232 230 231 232 237
320 313 311 311 311 301 302 298 297 301 302 306 266 253 245 236 236 236 236 237 240 240
313 310 304 303 301 301 300 298 297 301 299 296 277 252 244 241 242 239 239 240 245 245
304 304 298 296 295 296 298 300 301 301 297 292 294 247 241 238 234 238 239 242 241 242
301 301 296 293 292 293 293 297 298 300 295 287 295 248 244 241 237 235 233 231 234 241
300 298 295 292 289 289 287 291 296 290 293 291 285 254 242 244 240 240 237 235 231 235
297 296 294 292 289 287 286 285 288 288 289 280 270 276 255 249 243 244 234 231 235 238
296 294 293 291 289 286 286 285 287 290 289 284 276 275 261 252 243 239 242 237 236 235
294 293 292 291 289 286 286 286 287 282 285 279 267 269 258 257 253 243 240 241 240 243
293 292 291 290 288 284 284 286 285 284 284 275 267 263 258 257 257 245 244 241 240 236
292 290 289 287 285 284 282 280 278 283 284 271 272 266 266 259 258 244 244 239 234 234
291 288 285 284 283 282 281 279 277 280 274 270 270 267 266 262 250 239 226 225 231 237
289 284 281 279 279 277 277 275 279 277 272 267 268 265 273 261 225 212 221 234 244 251
289 283 279 276 273 273 273 272 271 270 270 284 278 272 261 241 216 218 225 237 250 259